Starlink 2273

operational
NORAD ID: 47993 Int'l Des: 2021-024 Owner: SPXS Country: US Constellation: starlink
LEOCIRCULARSTARLINK_TYPE

Starlink 2273について

説明を読み込み中...

リアルタイム位置

3D地球を読み込み中...

次回通過

高度履歴

Altitude vs Time

uPlot chart will show altitude changes over time

軌道要素

1 47993U 21024S 25304.74959825 .00000038 00000-0 21446-4 0 9996
2 47993 53.0535 155.4511 0001371 92.6860 267.4286 15.06402530255687
Epoch: Oct 31, 2025 • Age: 23 hours

現在のステータス

高度 548.6 km
速度 7.59 km/s
衛星直下点 32.72°N, 7.85°E
打ち上げ日 Mar 24, 2021
運用期間 4.6 years
タイプ internet

技術仕様

分類 Payload
質量 260.00 kg
乾燥質量 248.00 kg
総質量 260.00 kg
長さ 0.20 m
直径 2.80 m
スパン 9.00 m
形状 Box + pan
製造者 SPXS
バスタイプ Starlink
フェーズステータス In Orbit
所有者/国 SPXS/US

大規模コンステレーション

Loading constellations...